Language: 


Des rapports , des résumés tant et plus, au choix de chacun....


Données statistiques de la station
Quotidien Rapport Janvier 4, 2018 Unités:  Métrique    Anglais   les deux
« Précédent Jour
Suivant Jour »
Quotidien Hebdomadaire Mensuel Annuel Actuel
  Haut: Bas: Moyen:
Température: -17.8 °C -17.8 °C -12.5 °C
Pt de rosée: -17.8 °C -15 °C -13.4 °C
Humidité: Humidity % 0 % 87 %
Vitesse du vent: 0 km/h 0 km/h 32.7 km/h
Rafales: 0 km/h - -
Vent:- - WSW
Pression: 0 hPa 0 hPa -
Précipitation: 335.28 mm    
Historical Graphs
 
 
Données statistiques pour Janvier 4, 2018
Heure Température Point de rosée Pression Vent Vitesse du vent Refales Humidité Pluie (taux horaire)
-17.8 °C -17.8 °C 0 hPa Calm     Humidity % 0 mm
00:00 -13.1 °C -14.4 °C 33890.5 hPa West 26.2 km/h 36.5 km/h 82 % 0 mm
00:08 -13.1 °C -14.4 °C 33890.5 hPa West 25.4 km/h 39.4 km/h 82 % 0 mm
00:11 -13.1 °C -14.4 °C 33924.3 hPa WSW 37.5 km/h 39.4 km/h 82 % 0 mm
00:13 -13.1 °C -14.4 °C 33924.3 hPa WSW 44.6 km/h 44.6 km/h 82 % 0 mm
00:18 -13.2 °C -14.4 °C 33924.3 hPa West 23.8 km/h 44.6 km/h 83 % 0 mm
00:21 -13.2 °C -14.4 °C 33924.3 hPa West 33.2 km/h 44.6 km/h 83 % 0 mm
00:26 -13.1 °C -14.4 °C 33890.5 hPa WSW 38.3 km/h 43.5 km/h 83 % 0 mm
00:32 -13.2 °C -14.4 °C 33890.5 hPa WSW 24.8 km/h 43.5 km/h 83 % 0 mm
00:33 -13.1 °C -14.4 °C 33890.5 hPa WSW 37.5 km/h 44.6 km/h 83 % 0 mm
00:34 -13.1 °C -14.4 °C 33890.5 hPa West 41.7 km/h 44.6 km/h 83 % 0 mm
00:38 -13.1 °C -14.4 °C 33890.5 hPa WSW 22.5 km/h 44.6 km/h 84 % 0 mm
00:39 -13.1 °C -14.4 °C 33890.5 hPa WSW 20.9 km/h 44.6 km/h 84 % 0 mm
00:46 -13.2 °C -14.4 °C 33890.5 hPa West 27.7 km/h 40.7 km/h 84 % 0 mm
00:49 -13.2 °C -14.4 °C 33890.5 hPa West 36 km/h 40.7 km/h 84 % 0 mm
00:54 -13.2 °C -14.4 °C 33890.5 hPa WSW 19.2 km/h 38.3 km/h 84 % 0 mm
00:57 -13.2 °C -14.4 °C 33890.5 hPa West 27.7 km/h 36 km/h 84 % 0 mm
01:00 -13.2 °C -14.4 °C 33890.5 hPa WSW 20.9 km/h 38.3 km/h 84 % 0 mm
01:08 -13.2 °C -14.4 °C 33890.5 hPa WSW 27.2 km/h 41.7 km/h 84 % 0 mm
01:10 -13.2 °C -14.4 °C 33890.5 hPa WSW 27.7 km/h 41.7 km/h 84 % 0 mm
01:15 -13.2 °C -14.4 °C 33890.5 hPa WSW 29.5 km/h 41.7 km/h 84 % 0 mm
01:16 -13.2 °C -14.4 °C 33890.5 hPa WSW 22.5 km/h 41.7 km/h 84 % 0 mm
01:21 -13.2 °C -14.4 °C 33890.5 hPa West 27.7 km/h 41.2 km/h 85 % 0 mm
01:26 -13.3 °C -14.4 °C 33890.5 hPa WSW 25.4 km/h 41.2 km/h 85 % 0 mm
01:28 -13.3 °C -14.4 °C 33890.5 hPa West 22 km/h 27.7 km/h 85 % 0 mm
01:30 -13.3 °C -14.4 °C 33890.5 hPa WSW 22 km/h 27.7 km/h 85 % 0 mm
01:33 -13.3 °C -14.4 °C 33890.5 hPa WSW 19.2 km/h 27.2 km/h 85 % 0 mm
01:36 -13.4 °C -14.4 °C 33890.5 hPa WSW 23 km/h 28.5 km/h 85 % 0 mm
01:41 -13.4 °C -14.4 °C 33890.5 hPa WSW 20.3 km/h 28.5 km/h 86 % 0 mm
01:44 -13.4 °C -14.4 °C 33890.5 hPa WSW 25.4 km/h 28.5 km/h 86 % 0 mm
01:49 -13.4 °C -14.4 °C 33890.5 hPa WSW 22 km/h 28.5 km/h 87 % 0 mm
01:54 -13.4 °C -14.4 °C 33890.5 hPa WSW 24.8 km/h 32.3 km/h 87 % 0 mm
01:56 -13.4 °C -14.4 °C 33890.5 hPa WSW 20.3 km/h 32.3 km/h 87 % 0 mm
02:01 -13.4 °C -14.4 °C 33890.5 hPa WSW 22 km/h 32.3 km/h 88 % 0 mm
02:02 -13.4 °C -14.4 °C 33890.5 hPa WSW 20.9 km/h 32.3 km/h 88 % 0 mm
02:07 -13.4 °C -14.4 °C 33890.5 hPa WSW 25.4 km/h 33.2 km/h 89 % 0 mm
02:12 -13.4 °C -14.4 °C 33890.5 hPa WSW 19.6 km/h 33.2 km/h 89 % 0 mm
02:13 -13.4 °C -14.4 °C 33890.5 hPa WSW 20.3 km/h 33.2 km/h 89 % 0 mm
02:18 -13.4 °C -14.4 °C 33890.5 hPa WSW 20.9 km/h 33.6 km/h 89 % 0 mm
02:20 -13.4 °C -14.4 °C 33890.5 hPa WSW 20.3 km/h 33.6 km/h 90 % 0 mm
02:25 -13.4 °C -14.4 °C 33890.5 hPa WSW 22 km/h 33.6 km/h 90 % 0 mm
02:28 -13.3 °C -13.9 °C 33890.5 hPa West 27.7 km/h 36 km/h 90 % 0 mm
02:33 -13.3 °C -13.9 °C 33890.5 hPa WSW 20.9 km/h 36 km/h 90 % 0 mm
02:34 -13.3 °C -13.9 °C 33890.5 hPa WSW 22.5 km/h 36 km/h 90 % 0 mm
02:40 -13.3 °C -13.9 °C 33890.5 hPa WSW 16.3 km/h 31.4 km/h 90 % 0 mm
02:41 -13.3 °C -13.9 °C 33890.5 hPa WSW 26.7 km/h 27.2 km/h 90 % 0 mm
02:47 -13.4 °C -14.4 °C 33890.5 hPa WSW 18.7 km/h 27.2 km/h 90 % 0 mm
02:52 -13.4 °C -14.4 °C 33890.5 hPa WSW 19.6 km/h 26.2 km/h 90 % 0 mm
02:55 -13.4 °C -14.4 °C 33890.5 hPa WSW 20.9 km/h 25.4 km/h 90 % 0 mm
02:57 -13.4 °C -14.4 °C 33890.5 hPa WSW 22.5 km/h 26.2 km/h 90 % 0 mm
03:02 -13.4 °C -13.9 °C 33890.5 hPa WSW 22.5 km/h 26.2 km/h 91 % 0 mm
03:03 -13.4 °C -13.9 °C 33890.5 hPa WSW 27.7 km/h 27.7 km/h 91 % 0 mm
03:08 -13.3 °C -13.9 °C 33890.5 hPa WSW 22 km/h 31.4 km/h 92 % 0 mm
03:12 -13.3 °C -13.9 °C 33856.6 hPa SW 19.2 km/h 31.4 km/h 92 % 0 mm
03:14 -13.3 °C -13.9 °C 33856.6 hPa SSW 19.6 km/h 31.4 km/h 92 % 0 mm
03:19 -13.3 °C -13.9 °C 33856.6 hPa WSW 17.4 km/h 24.8 km/h 92 % 0 mm
03:20 -13.3 °C -13.9 °C 33856.6 hPa WSW 19.6 km/h 24.8 km/h 92 % 0 mm
03:22 -13.3 °C -13.9 °C 33856.6 hPa WSW 16.9 km/h 25.4 km/h 92 % 0 mm
03:26 -13.2 °C -13.9 °C 33856.6 hPa WSW 20.9 km/h 25.4 km/h 92 % 0 mm
03:28 -13.2 °C -13.9 °C 33856.6 hPa WSW 20.3 km/h 25.4 km/h 93 % 0 mm
03:33 -13.2 °C -13.9 °C 33856.6 hPa WSW 17.9 km/h 26.2 km/h 93 % 0 mm
03:38 -13.2 °C -13.9 °C 33856.6 hPa WSW 14 km/h 26.2 km/h 93 % 0 mm
03:41 -13.2 °C -13.9 °C 33856.6 hPa WSW 22.5 km/h 22.5 km/h 93 % 0 mm
03:46 -13.2 °C -13.3 °C 33856.6 hPa WSW 16.3 km/h 22.5 km/h 93 % 0 mm
03:52 -13.2 °C -13.3 °C 33856.6 hPa WSW 22.5 km/h 22.5 km/h 93 % 0 mm
03:53 -13.2 °C -13.3 °C 33856.6 hPa WSW 15 km/h 22.5 km/h 94 % 0 mm
03:58 -13.1 °C -13.3 °C 33856.6 hPa WSW 22.5 km/h 22.5 km/h 94 % 0 mm
04:00 -13.1 °C -13.3 °C 33856.6 hPa WSW 16.3 km/h 22.5 km/h 94 % 0 mm
04:05 -13.1 °C -13.3 °C 33856.6 hPa WSW 16.9 km/h 22.5 km/h 94 % 0 mm
04:08 -13.1 °C -13.3 °C 33856.6 hPa WSW 18.7 km/h 22.5 km/h 94 % 0 mm
04:12 -13.1 °C -13.3 °C 33856.6 hPa WSW 19.6 km/h 22 km/h 94 % 0 mm
04:13 -13.1 °C -13.3 °C 33856.6 hPa WSW 20.3 km/h 26.2 km/h 95 % 0 mm
04:18 -13.1 °C -13.3 °C 33856.6 hPa WSW 20.3 km/h 33.2 km/h 95 % 0 mm
04:22 -13 °C -13.3 °C 33856.6 hPa WSW 22 km/h 33.6 km/h 95 % 0 mm
04:29 -13 °C -13.3 °C 33856.6 hPa WSW 18.7 km/h 33.6 km/h 95 % 0 mm
04:34 -12.9 °C -13.3 °C 33856.6 hPa WSW 16.3 km/h 33.6 km/h 95 % 0 mm
04:39 -12.9 °C -13.3 °C 33856.6 hPa WSW 16.3 km/h 27.2 km/h 95 % 0 mm
04:42 -12.9 °C -13.3 °C 33822.8 hPa WSW 12.7 km/h 27.2 km/h 95 % 0 mm
04:48 -12.9 °C -13.3 °C 33822.8 hPa WSW 16.9 km/h 26.2 km/h 95 % 0 mm
04:53 -12.9 °C -13.3 °C 33822.8 hPa WSW 20.3 km/h 22.5 km/h 94 % 0 mm
04:54 -12.9 °C -13.3 °C 33822.8 hPa WSW 19.2 km/h 27.7 km/h 94 % 0 mm
04:55 -12.9 °C -13.3 °C 33822.8 hPa WSW 16.9 km/h 27.7 km/h 94 % 0 mm
05:00 -12.9 °C -13.3 °C 33822.8 hPa SW 16.9 km/h 27.7 km/h 94 % 0 mm
05:03 -12.9 °C -13.3 °C 33822.8 hPa WSW 19.6 km/h 27.7 km/h 94 % 0 mm
05:08 -12.9 °C -13.3 °C 33822.8 hPa WSW 15.6 km/h 26.2 km/h 94 % 0 mm
05:11 -12.9 °C -13.3 °C 33822.8 hPa SW 19.6 km/h 25.4 km/h 94 % 0 mm
05:14 -12.9 °C -13.3 °C 33822.8 hPa SW 14.5 km/h 22.5 km/h 94 % 0 mm
05:15 -12.9 °C -13.3 °C 33822.8 hPa SW 14.5 km/h 22.5 km/h 94 % 0 mm
05:16 -12.9 °C -13.3 °C 33822.8 hPa SW 16.9 km/h 22.5 km/h 94 % 0 mm
05:17 -12.9 °C -13.3 °C 33822.8 hPa WSW 16.3 km/h 22.5 km/h 94 % 0 mm
05:18 -12.9 °C -13.3 °C 33822.8 hPa SSW 9.3 km/h 22.5 km/h 94 % 0 mm
05:19 -12.9 °C -13.3 °C 33822.8 hPa WSW 14 km/h 22.5 km/h 94 % 0 mm
05:20 -12.9 °C -13.3 °C 33822.8 hPa SW 16.3 km/h 20.9 km/h 94 % 0 mm
05:22 -12.9 °C -13.3 °C 33822.8 hPa WSW 12.7 km/h 20.3 km/h 95 % 0 mm
05:23 -12.9 °C -13.3 °C 33822.8 hPa WSW 15.6 km/h 20.3 km/h 95 % 0 mm
05:26 -12.9 °C -13.3 °C 33822.8 hPa WSW 16.3 km/h 20.3 km/h 95 % 0 mm
05:31 -12.9 °C -13.3 °C 33822.8 hPa SW 12.7 km/h 20.3 km/h 95 % 0 mm
05:36 -13 °C -13.3 °C 33822.8 hPa SW 14 km/h 19.2 km/h 95 % 0 mm
05:38 -13 °C -13.3 °C 33822.8 hPa SW 10.3 km/h 17.9 km/h 95 % 0 mm
05:39 -13 °C -13.3 °C 33822.8 hPa WSW 15.6 km/h 17.9 km/h 95 % 0 mm
05:43 -13 °C -12.8 °C 33788.9 hPa SW 14.5 km/h 22.5 km/h 96 % 0 mm
05:44 -13 °C -12.8 °C 33788.9 hPa SSW 14.5 km/h 22.5 km/h 96 % 0 mm
05:47 -13.1 °C -12.8 °C 33788.9 hPa WSW 16.9 km/h 22.5 km/h 96 % 0 mm
05:50 -13.1 °C -12.8 °C 33788.9 hPa WSW 12.7 km/h 20.9 km/h 96 % 0 mm
05:53 -13.1 °C -12.8 °C 33788.9 hPa WSW 16.3 km/h 19.6 km/h 96 % 0 mm
05:56 -13.1 °C -12.8 °C 33788.9 hPa SW 15 km/h 19.2 km/h 96 % 0 mm
05:58 -13.1 °C -12.8 °C 33788.9 hPa SSW 9.3 km/h 22.5 km/h 96 % 0 mm
06:03 -13.1 °C -12.8 °C 33788.9 hPa SSW 20.3 km/h 22.5 km/h 96 % 0 mm
06:12 -13.1 °C -12.8 °C 33788.9 hPa SW 9.8 km/h 20.3 km/h 97 % 7.62 mm
06:17 -13.1 °C -13.3 °C 33788.9 hPa SSW 15 km/h 16.9 km/h 97 % 7.62 mm
06:23 -13.1 °C -12.8 °C 33788.9 hPa SSW 8 km/h 16.9 km/h 98 % 7.62 mm
06:24 -13.1 °C -12.8 °C 33788.9 hPa SW 15.6 km/h 16.9 km/h 98 % 7.62 mm
06:29 -13.1 °C -12.8 °C 33788.9 hPa SSW 8 km/h 16.9 km/h 98 % 12.7 mm
06:34 -13.1 °C -12.8 °C 33788.9 hPa SSW 12.2 km/h 19.6 km/h 98 % 12.7 mm
06:37 -13.2 °C -12.8 °C 33788.9 hPa SSW 16.3 km/h 19.6 km/h 98 % 12.7 mm
06:41 -13.2 °C -12.8 °C 33788.9 hPa SSW 14.5 km/h 17.4 km/h 98 % 12.7 mm
06:42 -13.2 °C -12.8 °C 33788.9 hPa SSW 14 km/h 17.4 km/h 98 % 12.7 mm
06:47 -13.2 °C -12.8 °C 33788.9 hPa SSW 9.3 km/h 17.4 km/h 98 % 20.32 mm
06:49 -13.2 °C -12.8 °C 33788.9 hPa Calm   15.6 km/h 98 % 20.32 mm
06:51 -13.2 °C -12.8 °C 33788.9 hPa SSW 8 km/h 15.6 km/h 98 % 33.02 mm
06:54 -13.2 °C -12.8 °C 33788.9 hPa Calm   14 km/h 98 % 33.02 mm
06:59 -13.2 °C -12.8 °C 33788.9 hPa Calm   9.3 km/h 98 % 33.02 mm
07:00 -13.2 °C -13.3 °C 33788.9 hPa Calm   9.3 km/h 98 % 38.1 mm
07:04 -13.2 °C -13.3 °C 33788.9 hPa SSW 8.9 km/h 9.3 km/h 98 % 38.1 mm
07:09 -13.2 °C -13.3 °C 33788.9 hPa Calm   10.3 km/h 98 % 38.1 mm
07:12 -13.2 °C -13.3 °C 33751.6 hPa Calm   10.3 km/h 98 % 38.1 mm
07:18 -13.2 °C -13.3 °C 33751.6 hPa Calm   12.2 km/h 98 % 45.72 mm
07:23 -13.2 °C -13.3 °C 33751.6 hPa Calm   12.7 km/h 98 % 45.72 mm
07:26 -13.2 °C -13.3 °C 33751.6 hPa SSW 10.3 km/h 14 km/h 98 % 58.42 mm
07:30 -13.3 °C -13.3 °C 33751.6 hPa SSW 9.3 km/h 14 km/h 98 % 45.72 mm
07:32 -13.3 °C -13.3 °C 33751.6 hPa SSW 9.3 km/h 14 km/h 98 % 45.72 mm
07:34 -13.3 °C -13.3 °C 33751.6 hPa SSW 15 km/h 16.3 km/h 98 % 45.72 mm
07:36 -13.3 °C -13.3 °C 33751.6 hPa SSW 12.7 km/h 16.3 km/h 98 % 58.42 mm
07:38 -13.3 °C -13.3 °C 33751.6 hPa SSW 10.3 km/h 16.3 km/h 98 % 58.42 mm
07:39 -13.3 °C -13.3 °C 33751.6 hPa SSW 9.3 km/h 16.3 km/h 98 % 58.42 mm
07:44 -13.3 °C -13.3 °C 33751.6 hPa Calm   15 km/h 98 % 58.42 mm
07:47 -13.3 °C -13.3 °C 33751.6 hPa SSW 12.7 km/h 19.2 km/h 98 % 58.42 mm
07:48 -13.3 °C -13.3 °C 33751.6 hPa SSW 12.7 km/h 19.2 km/h 98 % 58.42 mm
07:51 -13.3 °C -13.3 °C 33751.6 hPa South 10.3 km/h 19.2 km/h 98 % 58.42 mm
07:54 -13.3 °C -13.3 °C 33751.6 hPa South 14.5 km/h 19.2 km/h 98 % 63.5 mm
07:59 -13.3 °C -13.3 °C 33751.6 hPa South 2.3 km/h 15.6 km/h 98 % 63.5 mm
08:04 -13.3 °C -13.3 °C 33751.6 hPa Calm   15.6 km/h 98 % 63.5 mm
08:06 -13.3 °C -13.3 °C 33751.6 hPa Calm   15.6 km/h 98 % 63.5 mm
08:11 -13.3 °C -13.3 °C 33751.6 hPa SSW 7.6 km/h 20.9 km/h 98 % 63.5 mm
08:12 -13.3 °C -13.3 °C 33751.6 hPa South 16.3 km/h 20.9 km/h 98 % 63.5 mm
08:14 -13.3 °C -13.3 °C 33751.6 hPa South 15.6 km/h 20.9 km/h 98 % 63.5 mm
08:18 -13.3 °C -13.3 °C 33751.6 hPa SSW 11.1 km/h 20.9 km/h 98 % 58.42 mm
08:19 -13.3 °C -13.3 °C 33751.6 hPa SSW 12.7 km/h 20.9 km/h 98 % 63.5 mm
08:24 -13.3 °C -13.3 °C 33751.6 hPa South 14 km/h 15.6 km/h 98 % 58.42 mm
08:26 -13.3 °C -13.3 °C 33751.6 hPa South 9.8 km/h 15 km/h 98 % 58.42 mm
08:30 -13.3 °C -13.3 °C 33751.6 hPa South 15 km/h 15 km/h 98 % 63.5 mm
08:36 -13.3 °C -13.3 °C 33751.6 hPa South 15 km/h 17.4 km/h 98 % 58.42 mm
08:37 -13.3 °C -13.3 °C 33751.6 hPa SSE 16.3 km/h 17.4 km/h 98 % 58.42 mm
08:39 -13.4 °C -13.3 °C 33751.6 hPa SSE 9.3 km/h 17.4 km/h 98 % 63.5 mm
08:42 -13.4 °C -13.3 °C 33751.6 hPa South 14 km/h 18.7 km/h 98 % 58.42 mm
08:45 -13.4 °C -13.3 °C 33751.6 hPa SSE 10.3 km/h 18.7 km/h 98 % 58.42 mm
08:50 -13.4 °C -13.3 °C 33751.6 hPa South 14.5 km/h 18.7 km/h 98 % 45.72 mm
08:51 -13.4 °C -13.3 °C 33751.6 hPa South 10.3 km/h 18.7 km/h 98 % 58.42 mm
08:53 -13.4 °C -13.3 °C 33751.6 hPa Calm   16.3 km/h 98 % 58.42 mm
08:58 -13.4 °C -13.3 °C 33731.3 hPa South 14 km/h 16.9 km/h 98 % 45.72 mm
09:00 -13.4 °C -13.3 °C 33731.3 hPa South 16.3 km/h 19.2 km/h 98 % 38.1 mm
09:02 -13.4 °C -13.3 °C 33731.3 hPa SSE 9.8 km/h 19.2 km/h 98 % 45.72 mm
09:07 -13.4 °C -13.3 °C 33731.3 hPa SSE 8.9 km/h 19.2 km/h 98 % 45.72 mm
09:10 -13.4 °C -13.3 °C 33731.3 hPa SSW 10.3 km/h 19.2 km/h 98 % 38.1 mm
09:14 -13.3 °C -13.3 °C 33731.3 hPa South 11.1 km/h 22 km/h 98 % 38.1 mm
09:17 -13.3 °C -13.3 °C 33731.3 hPa South 9.8 km/h 22 km/h 98 % 45.72 mm
09:22 -13.3 °C -13.3 °C 33731.3 hPa South 10.3 km/h 16.3 km/h 98 % 38.1 mm
09:24 -13.3 °C -13.3 °C 33731.3 hPa South 2.3 km/h 16.3 km/h 98 % 45.72 mm
09:27 -13.3 °C -13.3 °C 33660.2 hPa SSW 15 km/h 19.6 km/h 98 % 38.1 mm
09:30 -13.3 °C -13.3 °C 33660.2 hPa South 20.3 km/h 20.3 km/h 98 % 38.1 mm
09:33 -13.3 °C -13.3 °C 33660.2 hPa SSW 9.3 km/h 20.9 km/h 98 % 38.1 mm
09:35 -13.3 °C -13.3 °C 33660.2 hPa SSW 15.6 km/h 20.9 km/h 98 % 45.72 mm
09:36 -13.3 °C -13.3 °C 33660.2 hPa SSW 10.3 km/h 20.9 km/h 98 % 45.72 mm
09:38 -13.3 °C -13.3 °C 33660.2 hPa SSW 14.5 km/h 24.8 km/h 98 % 38.1 mm
09:43 -13.3 °C -13.3 °C 33694.1 hPa SW 8.9 km/h 24.8 km/h 98 % 45.72 mm
09:48 -13.3 °C -13.3 °C 33694.1 hPa South 15.6 km/h 16.9 km/h 98 % 45.72 mm
09:51 -13.3 °C -13.3 °C 33694.1 hPa South 14.5 km/h 24.8 km/h 98 % 45.72 mm
09:54 -13.3 °C -13.3 °C 33694.1 hPa WSW 18.7 km/h 24.8 km/h 98 % 45.72 mm
09:59 -13.2 °C -13.3 °C 33694.1 hPa SSW 19.6 km/h 24.8 km/h 98 % 58.42 mm
10:03 -13.2 °C -12.8 °C 33694.1 hPa SW 15 km/h 22.5 km/h 98 % 45.72 mm
10:08 -13.2 °C -12.8 °C 33694.1 hPa South 22 km/h 22.5 km/h 98 % 58.42 mm
10:13 -13.2 °C -12.8 °C 33694.1 hPa SSW 8.9 km/h 22.5 km/h 98 % 63.5 mm
10:14 -13.1 °C -12.8 °C 33694.1 hPa South 2.9 km/h 22.5 km/h 98 % 58.42 mm
10:16 -13.1 °C -12.8 °C 33694.1 hPa WSW 10.3 km/h 22.5 km/h 98 % 63.5 mm
10:21 -13.1 °C -12.8 °C 33694.1 hPa South 18.7 km/h 22.5 km/h 98 % 63.5 mm
10:26 -13.1 °C -12.8 °C 33694.1 hPa South 22 km/h 27.7 km/h 98 % 63.5 mm
10:30 -13.1 °C -12.8 °C 33694.1 hPa South 10.3 km/h 27.7 km/h 98 % 71.12 mm
10:35 -13.1 °C -12.8 °C 33694.1 hPa South 11.1 km/h 27.7 km/h 98 % 71.12 mm
10:38 -13 °C -12.8 °C 33694.1 hPa SSW 15 km/h 22.5 km/h 98 % 76.2 mm
10:43 -13 °C -12.8 °C 33660.2 hPa South 19.6 km/h 24.8 km/h 98 % 76.2 mm
10:48 -13 °C -12.8 °C 33660.2 hPa South 15 km/h 24.8 km/h 98 % 83.82 mm
10:52 -13 °C -12.8 °C 33660.2 hPa South 19.2 km/h 24.8 km/h 98 % 83.82 mm
10:56 -12.9 °C -12.8 °C 33660.2 hPa South 12.2 km/h 22 km/h 98 % 96.52 mm
11:01 -12.9 °C -12.8 °C 33660.2 hPa South 12.7 km/h 20.9 km/h 98 % 96.52 mm
11:05 -12.9 °C -12.8 °C 33660.2 hPa South 14 km/h 18.7 km/h 98 % 83.82 mm
11:06 -12.9 °C -12.8 °C 33660.2 hPa South 20.3 km/h 22 km/h 98 % 96.52 mm
11:11 -12.9 °C -12.8 °C 33660.2 hPa SSW 9.8 km/h 22 km/h 98 % 83.82 mm
11:16 -12.8 °C -12.8 °C 33660.2 hPa SSW 14.5 km/h 22.5 km/h 98 % 83.82 mm
11:17 -12.8 °C -12.8 °C 33660.2 hPa SW 14 km/h 22.5 km/h 98 % 83.82 mm
11:22 -12.8 °C -12.8 °C 33660.2 hPa SSW 15.6 km/h 22.5 km/h 98 % 76.2 mm
11:26 -12.7 °C -12.8 °C 33660.2 hPa South 9.3 km/h 22 km/h 98 % 83.82 mm
11:28 -12.7 °C -12.8 °C 33660.2 hPa SSW 10.3 km/h 22 km/h 98 % 76.2 mm
11:32 -12.6 °C -12.8 °C 33660.2 hPa SW 15 km/h 22 km/h 98 % 76.2 mm
11:36 -12.6 °C -12.8 °C 33660.2 hPa WSW 22 km/h 22 km/h 98 % 71.12 mm
11:38 -12.6 °C -12.8 °C 33660.2 hPa SW 14 km/h 25.4 km/h 98 % 71.12 mm
11:43 -12.4 °C -12.2 °C 33626.4 hPa WSW 16.9 km/h 25.4 km/h 98 % 63.5 mm
11:46 -12.3 °C -12.2 °C 33626.4 hPa SSW 19.6 km/h 25.4 km/h 98 % 58.42 mm
11:51 -12.2 °C -12.2 °C 33626.4 hPa WSW 26.7 km/h 27.7 km/h 98 % 58.42 mm
11:54 -12.1 °C -12.2 °C 33626.4 hPa WSW 27.2 km/h 33.6 km/h 98 % 45.72 mm
11:59 -11.8 °C -11.7 °C 33626.4 hPa WSW 26.7 km/h 39.9 km/h 98 % 38.1 mm
12:01 -11.8 °C -11.7 °C 33626.4 hPa WSW 33.6 km/h 40.7 km/h 98 % 38.1 mm
12:06 -11.5 °C -11.7 °C 33626.4 hPa West 39.9 km/h 54.4 km/h 98 % 33.02 mm
12:12 -11.3 °C -11.1 °C 33592.5 hPa WSW 52.8 km/h 59.5 km/h 98 % 33.02 mm
12:16 -11.1 °C -11.1 °C 33592.5 hPa WSW 44.1 km/h 62.6 km/h 98 % 25.4 mm
12:21 -11 °C -11.1 °C 33592.5 hPa WSW 43 km/h 73.5 km/h 98 % 25.4 mm
12:26 -10.9 °C -10.6 °C 33626.4 hPa WSW 57.3 km/h 73.5 km/h 98 % 20.32 mm
12:27 -10.9 °C -10.6 °C 33626.4 hPa WSW 53.3 km/h 73.5 km/h 98 % 20.32 mm
12:32 -10.9 °C -10.6 °C 33626.4 hPa West 48.6 km/h 67.9 km/h 98 % 12.7 mm
12:35 -10.8 °C -10.6 °C 33626.4 hPa WSW 39.9 km/h 67.9 km/h 98 % 12.7 mm
12:40 -10.8 °C -10.6 °C 33626.4 hPa West 68.4 km/h 68.4 km/h 98 % 12.7 mm
12:42 -10.8 °C -10.6 °C 33626.4 hPa WSW 38.3 km/h 68.4 km/h 98 % 12.7 mm
12:48 -10.8 °C -10.6 °C 33626.4 hPa WSW 45.9 km/h 71.8 km/h 98 % 12.7 mm
12:49 -10.8 °C -10.6 °C 33626.4 hPa West 51 km/h 71.8 km/h 98 % 12.7 mm
12:54 -10.8 °C -10.6 °C 33626.4 hPa West 65.5 km/h 73.5 km/h 98 % 7.62 mm
12:56 -10.8 °C -10.6 °C 33626.4 hPa WSW 46.3 km/h 73.5 km/h 98 % 7.62 mm
12:57 -10.8 °C -10.6 °C 33626.4 hPa West 71.8 km/h 73.5 km/h 98 % 7.62 mm
13:03 -10.7 °C -10.6 °C 33626.4 hPa WSW 42.2 km/h 71.8 km/h 98 % 7.62 mm
13:08 -10.7 °C -10.6 °C 33626.4 hPa WSW 33.2 km/h 66.6 km/h 98 % 7.62 mm
13:09 -10.7 °C -10.6 °C 33626.4 hPa WSW 39.4 km/h 66.6 km/h 98 % 7.62 mm
13:14 -10.7 °C -10.6 °C 33626.4 hPa West 34.8 km/h 68.4 km/h 98 % 7.62 mm
13:15 -10.7 °C -10.6 °C 33626.4 hPa West 32.3 km/h 68.4 km/h 98 % 7.62 mm
13:21 -10.6 °C -10.6 °C 33626.4 hPa West 46.3 km/h 68.4 km/h 98 % 7.62 mm
13:26 -10.6 °C -10.6 °C 33660.2 hPa WSW 39.9 km/h 66 km/h 98 % 7.62 mm
13:31 -10.6 °C -10.6 °C 33660.2 hPa West 57.3 km/h 65 km/h 98 % 0 mm
13:36 -10.6 °C -10.6 °C 33660.2 hPa West 61.3 km/h 77.1 km/h 98 % 0 mm
13:38 -10.6 °C -10.6 °C 33660.2 hPa WSW 43 km/h 77.1 km/h 98 % 0 mm
13:39 -10.6 °C -10.6 °C 33660.2 hPa West 70.2 km/h 78.2 km/h 98 % 0 mm
13:41 -10.5 °C -10.6 °C 33626.4 hPa West 62.6 km/h 78.2 km/h 97 % 0 mm
13:47 -10.5 °C -10.6 °C 33626.4 hPa West 44.6 km/h 78.2 km/h 96 % 0 mm
13:48 -10.5 °C -10.6 °C 33626.4 hPa West 37 km/h 73.5 km/h 96 % 0 mm
13:53 -10.5 °C -10.6 °C 33626.4 hPa West 58.6 km/h 73.5 km/h 95 % 0 mm
13:54 -10.5 °C -10.6 °C 33626.4 hPa WSW 59.5 km/h 80.5 km/h 95 % 0 mm
13:58 -10.5 °C -11.1 °C 33626.4 hPa West 60.3 km/h 80.5 km/h 94 % 0 mm
14:03 -10.5 °C -11.1 °C 33626.4 hPa West 61.3 km/h 80.5 km/h 94 % 0 mm
14:04 -10.5 °C -11.1 °C 33626.4 hPa WSW 34.1 km/h 74 km/h 94 % 0 mm
14:05 -10.5 °C -11.1 °C 33626.4 hPa West 63.2 km/h 70.2 km/h 94 % 0 mm
14:10 -10.5 °C -11.1 °C 33626.4 hPa WSW 68.4 km/h 68.4 km/h 93 % 0 mm
14:14 -10.5 °C -11.1 °C 33626.4 hPa WSW 62 km/h 78.2 km/h 93 % 0 mm
14:17 -10.5 °C -11.1 °C 33626.4 hPa WSW 59.5 km/h 78.2 km/h 92 % 0 mm
14:23 -10.5 °C -11.1 °C 33626.4 hPa WSW 66.6 km/h 78.2 km/h 91 % 0 mm
14:25 -10.5 °C -11.1 °C 33626.4 hPa WSW 44.6 km/h 74.8 km/h 91 % 0 mm
14:30 -10.6 °C -11.1 °C 33626.4 hPa WSW 39.9 km/h 83.8 km/h 90 % 0 mm
14:32 -10.6 °C -11.1 °C 33626.4 hPa West 68.4 km/h 83.8 km/h 90 % 0 mm
14:37 -10.6 °C -11.1 °C 33626.4 hPa WSW 65 km/h 82.4 km/h 89 % 0 mm
14:38 -10.6 °C -11.1 °C 33626.4 hPa WSW 62.6 km/h 82.4 km/h 89 % 0 mm
14:40 -10.7 °C -11.1 °C 33626.4 hPa WSW 61.3 km/h 82.4 km/h 89 % 0 mm
14:41 -10.7 °C -11.7 °C 33592.5 hPa WSW 72.6 km/h 82.4 km/h 88 % 0 mm
14:45 -10.6 °C -11.7 °C 33592.5 hPa WSW 45.1 km/h 94.5 km/h 87 % 0 mm
14:50 -10.6 °C -11.7 °C 33592.5 hPa West 62.6 km/h 94.5 km/h 87 % 0 mm
14:51 -10.6 °C -11.7 °C 33592.5 hPa WSW 65 km/h 94.5 km/h 87 % 0 mm
14:56 -10.6 °C -11.7 °C 33592.5 hPa West 63.7 km/h 85.1 km/h 85 % 0 mm
15:01 -10.5 °C -11.7 °C 33592.5 hPa WSW 60.8 km/h 95.1 km/h 84 % 0 mm
15:06 -10.6 °C -12.2 °C 33592.5 hPa WSW 65.5 km/h 95.1 km/h 83 % 0 mm
15:08 -10.6 °C -12.2 °C 33592.5 hPa West 60.3 km/h 91.4 km/h 83 % 0 mm
15:13 -10.6 °C -12.2 °C 33592.5 hPa WSW 71.8 km/h 89 km/h 82 % 0 mm
15:16 -10.6 °C -12.2 °C 33592.5 hPa West 83.8 km/h 89 km/h 83 % 0 mm
15:21 -10.6 °C -12.2 °C 33592.5 hPa WSW 63.2 km/h 83.8 km/h 82 % 0 mm
15:24 -10.6 °C -12.2 °C 33592.5 hPa WSW 63.7 km/h 83.8 km/h 82 % 0 mm
15:26 -10.6 °C -12.2 °C 33626.4 hPa WSW 61.3 km/h 83.8 km/h 81 % 0 mm
15:31 -10.7 °C -12.2 °C 33626.4 hPa WSW 74 km/h 83.4 km/h 82 % 0 mm
15:36 -10.7 °C -12.2 °C 33626.4 hPa WSW 68.4 km/h 97.8 km/h 80 % 0 mm
15:38 -10.7 °C -12.2 °C 33626.4 hPa West 75.8 km/h 97.8 km/h 80 % 0 mm
15:43 -10.8 °C -12.2 °C 33626.4 hPa WSW 74.8 km/h 95.1 km/h 80 % 0 mm
15:48 -10.8 °C -12.8 °C 33626.4 hPa WSW 82.4 km/h 101.2 km/h 76 % 0 mm
15:49 -10.8 °C -12.8 °C 33626.4 hPa WSW 67.1 km/h 101.2 km/h 75 % 0 mm
15:54 -10.9 °C -12.8 °C 33626.4 hPa West 67.1 km/h 101.2 km/h 75 % 0 mm
15:56 -10.8 °C -12.8 °C 33592.5 hPa West 83.4 km/h 114.3 km/h 75 % 0 mm
16:00 -10.9 °C -12.8 °C 33592.5 hPa West 59.1 km/h 114.3 km/h 75 % 0 mm
16:06 -10.9 °C -13.3 °C 33592.5 hPa West 72.6 km/h 114.3 km/h 74 % 0 mm
16:12 -10.9 °C -12.8 °C 33626.4 hPa WSW 51 km/h 92.7 km/h 75 % 0 mm
16:17 -10.9 °C -12.8 °C 33626.4 hPa West 51.5 km/h 92.7 km/h 75 % 0 mm
16:20 -10.9 °C -12.8 °C 33626.4 hPa West 73.5 km/h 92.7 km/h 75 % 0 mm
16:25 -11 °C -12.8 °C 33626.4 hPa West 68.4 km/h 99.1 km/h 77 % 0 mm
16:26 -11 °C -12.8 °C 33592.5 hPa West 57.3 km/h 99.1 km/h 77 % 0 mm
16:31 -11 °C -13.3 °C 33592.5 hPa WSW 60.8 km/h 99.1 km/h 76 % 0 mm
16:34 -11.1 °C -13.3 °C 33592.5 hPa WSW 68.9 km/h 96.1 km/h 76 % 0 mm
16:39 -11.1 °C -13.3 °C 33592.5 hPa WSW 77.7 km/h 96.1 km/h 74 % 0 mm
16:44 -11.2 °C -13.3 °C 33626.4 hPa West 53.3 km/h 96.1 km/h 75 % 0 mm
16:46 -11.2 °C -13.9 °C 33626.4 hPa West 95.1 km/h 95.1 km/h 74 % 0 mm
16:51 -11.2 °C -13.9 °C 33626.4 hPa West 68.9 km/h 95.1 km/h 74 % 0 mm
16:55 -11.3 °C -13.9 °C 33626.4 hPa WSW 96.9 km/h 104.3 km/h 74 % 0 mm
16:56 -11.3 °C -13.9 °C 33626.4 hPa West 58.6 km/h 104.3 km/h 73 % 0 mm
16:59 -11.3 °C -13.9 °C 33626.4 hPa West 65.5 km/h 104.3 km/h 74 % 0 mm
17:04 -11.4 °C -13.9 °C 33626.4 hPa West 59.1 km/h 104.3 km/h 74 % 0 mm
17:05 -11.4 °C -13.9 °C 33626.4 hPa West 60.3 km/h 96.9 km/h 74 % 0 mm
17:11 -11.4 °C -13.9 °C 33626.4 hPa WNW 67.9 km/h 101.2 km/h 72 % 0 mm
17:16 -11.4 °C -13.9 °C 33626.4 hPa West 60.3 km/h 101.2 km/h 73 % 0 mm
17:18 -11.4 °C -13.9 °C 33626.4 hPa WNW 52.8 km/h 89 km/h 73 % 0 mm
17:21 -11.4 °C -13.9 °C 33626.4 hPa West 56.6 km/h 89 km/h 73 % 0 mm
17:27 -11.5 °C -13.9 °C 33626.4 hPa WSW 65.5 km/h 103 km/h 72 % 0 mm
17:32 -11.6 °C -13.9 °C 33626.4 hPa WSW 53.3 km/h 103 km/h 73 % 0 mm
17:35 -11.6 °C -14.4 °C 33626.4 hPa West 62.6 km/h 100.7 km/h 73 % 0 mm
17:36 -11.6 °C -14.4 °C 33626.4 hPa WSW 68.4 km/h 100.7 km/h 73 % 0 mm
17:41 -11.7 °C -13.9 °C 33626.4 hPa WSW 70.2 km/h 80 km/h 74 % 0 mm
17:42 -11.7 °C -13.9 °C 33626.4 hPa West 66.6 km/h 80 km/h 74 % 0 mm
17:45 -11.8 °C -14.4 °C 33626.4 hPa West 48.1 km/h 75.8 km/h 74 % 0 mm
17:50 -11.8 °C -14.4 °C 33626.4 hPa WSW 72.6 km/h 78.7 km/h 74 % 0 mm
17:53 -11.8 °C -14.4 °C 33626.4 hPa WSW 74 km/h 87.5 km/h 74 % 0 mm
17:58 -11.9 °C -14.4 °C 33626.4 hPa WSW 82.4 km/h 87.5 km/h 74 % 0 mm
17:59 -11.9 °C -14.4 °C 33626.4 hPa West 58.6 km/h 87.5 km/h 74 % 0 mm
18:04 -11.9 °C -14.4 °C 33626.4 hPa WSW 75.8 km/h 87.1 km/h 73 % 0 mm
18:06 -11.9 °C -14.4 °C 33626.4 hPa WSW 58.6 km/h 87.1 km/h 73 % 0 mm
18:11 -12.1 °C -14.4 °C 33626.4 hPa WSW 62.6 km/h 79.2 km/h 73 % 0 mm
18:16 -12.1 °C -14.4 °C 33626.4 hPa West 73.5 km/h 88.5 km/h 73 % 0 mm
18:19 -12.1 °C -14.4 °C 33626.4 hPa SW 57.9 km/h 88.5 km/h 72 % 0 mm
18:20 -12.1 °C -14.4 °C 33626.4 hPa West 58.6 km/h 88.5 km/h 72 % 0 mm
18:21 -12.1 °C -14.4 °C 33626.4 hPa WSW 48.6 km/h 88.5 km/h 72 % 0 mm
18:26 -12.1 °C -14.4 °C 33660.2 hPa WSW 66.6 km/h 92.7 km/h 72 % 0 mm
18:28 -12.2 °C -14.4 °C 33660.2 hPa West 77.1 km/h 92.7 km/h 72 % 0 mm
18:30 -12.1 °C -14.4 °C 33660.2 hPa WSW 49.7 km/h 92.7 km/h 72 % 0 mm
18:31 -12.2 °C -14.4 °C 33660.2 hPa WSW 73.5 km/h 92.7 km/h 72 % 0 mm
18:37 -12.2 °C -14.4 °C 33660.2 hPa West 67.1 km/h 89 km/h 72 % 0 mm
18:38 -12.2 °C -14.4 °C 33660.2 hPa WSW 80 km/h 89 km/h 72 % 0 mm
18:43 -12.2 °C -14.4 °C 33660.2 hPa West 65.5 km/h 80 km/h 72 % 0 mm
18:45 -12.2 °C -14.4 °C 33660.2 hPa West 83.8 km/h 83.8 km/h 72 % 0 mm
18:46 -12.2 °C -14.4 °C 33660.2 hPa West 37.5 km/h 83.8 km/h 72 % 0 mm
18:51 -12.2 °C -14.4 °C 33660.2 hPa WSW 70.6 km/h 83.8 km/h 73 % 0 mm
18:56 -12.2 °C -14.4 °C 33660.2 hPa West 57.3 km/h 83.4 km/h 73 % 0 mm
18:59 -12.2 °C -14.4 °C 33660.2 hPa WSW 60.3 km/h 75.8 km/h 74 % 0 mm
19:04 -12.2 °C -14.4 °C 33660.2 hPa WSW 65 km/h 85.8 km/h 74 % 0 mm
19:09 -12.2 °C -14.4 °C 33660.2 hPa West 57.3 km/h 85.8 km/h 74 % 0 mm
19:15 -12.2 °C -14.4 °C 33694.1 hPa West 60.3 km/h 67.1 km/h 74 % 0 mm
19:20 -12.3 °C -14.4 °C 33694.1 hPa West 51.5 km/h 67.1 km/h 75 % 0 mm
19:24 -12.3 °C -14.4 °C 33694.1 hPa West 41.2 km/h 70.2 km/h 75 % 0 mm
19:28 -12.3 °C -14.4 °C 33694.1 hPa West 49.7 km/h 70.2 km/h 75 % 0 mm
19:30 -12.3 °C -14.4 °C 33694.1 hPa West 68.4 km/h 71.1 km/h 75 % 0 mm
19:37 -12.4 °C -14.4 °C 33694.1 hPa West 27.7 km/h 71.1 km/h 76 % 0 mm
19:42 -12.4 °C -14.4 °C 33694.1 hPa West 61.3 km/h 70.6 km/h 75 % 0 mm
19:45 -12.4 °C -14.4 °C 33694.1 hPa WSW 38.3 km/h 70.6 km/h 76 % 0 mm
19:50 -12.4 °C -14.4 °C 33694.1 hPa WSW 53.3 km/h 70.6 km/h 75 % 0 mm
19:56 -12.4 °C -14.4 °C 33731.3 hPa WSW 36.5 km/h 68.9 km/h 75 % 0 mm
19:57 -12.4 °C -14.4 °C 33731.3 hPa West 57.3 km/h 68.9 km/h 75 % 0 mm
20:02 -12.5 °C -14.4 °C 33731.3 hPa WSW 27.2 km/h 68.9 km/h 75 % 0 mm
20:07 -12.6 °C -14.4 °C 33731.3 hPa WSW 59.1 km/h 72.6 km/h 75 % 0 mm
20:11 -12.6 °C -15 °C 33751.6 hPa West 30.7 km/h 72.6 km/h 73 % 0 mm
20:16 -12.6 °C -15 °C 33751.6 hPa WSW 33.2 km/h 61.3 km/h 73 % 0 mm
20:20 -12.6 °C -15 °C 33751.6 hPa WSW 41.2 km/h 61.3 km/h 74 % 0 mm
20:21 -12.7 °C -15 °C 33751.6 hPa West 37.5 km/h 61.3 km/h 74 % 0 mm
20:26 -12.6 °C -15 °C 33751.6 hPa West 32.3 km/h 61.3 km/h 74 % 0 mm
20:30 -12.7 °C -15 °C 33751.6 hPa West 44.1 km/h 58.6 km/h 73 % 0 mm
20:31 -12.7 °C -15 °C 33751.6 hPa West 27.2 km/h 58.6 km/h 73 % 0 mm
20:36 -12.7 °C -15 °C 33751.6 hPa WSW 42.2 km/h 53.3 km/h 73 % 0 mm
20:41 -12.8 °C -15 °C 33751.6 hPa WSW 31.9 km/h 53.3 km/h 74 % 0 mm
20:46 -12.8 °C -15 °C 33751.6 hPa WSW 39.4 km/h 53.3 km/h 74 % 0 mm
20:50 -12.8 °C -15 °C 33751.6 hPa WSW 34.8 km/h 65 km/h 74 % 0 mm
20:56 -12.8 °C -15 °C 33751.6 hPa WSW 45.9 km/h 65 km/h 74 % 0 mm
20:57 -12.8 °C -15 °C 33751.6 hPa West 32.3 km/h 62 km/h 74 % 0 mm
21:03 -12.8 °C -15 °C 33751.6 hPa WSW 39.4 km/h 51.5 km/h 74 % 0 mm
21:06 -12.9 °C -15 °C 33751.6 hPa West 26.2 km/h 51.5 km/h 74 % 0 mm
21:12 -12.9 °C -15 °C 33751.6 hPa West 32.3 km/h 62 km/h 74 % 0 mm
21:13 -12.9 °C -15 °C 33751.6 hPa West 36.5 km/h 62 km/h 74 % 0 mm
21:17 -12.9 °C -15 °C 33751.6 hPa West 28.5 km/h 63.7 km/h 74 % 0 mm
21:20 -12.9 °C -15 °C 33751.6 hPa West 28.5 km/h 63.7 km/h 74 % 0 mm
21:25 -13 °C -15 °C 33751.6 hPa West 29 km/h 44.1 km/h 74 % 0 mm
21:30 -13.1 °C -15 °C 33751.6 hPa West 26.2 km/h 44.1 km/h 75 % 0 mm
21:44 -17.8 °C -15 °C 0 hPa Calm     0 % 0 mm
21:49 -13.1 °C -15 °C 33751.6 hPa West 34.1 km/h 44.6 km/h 76 % 0 mm
21:51 -13.1 °C -15 °C 33751.6 hPa West 51 km/h 51 km/h 76 % 0 mm
21:53 -13.1 °C -15 °C 33751.6 hPa West 43 km/h 51 km/h 77 % 0 mm
21:56 -13.1 °C -15 °C 33751.6 hPa WSW 31.4 km/h 51 km/h 77 % 0 mm
22:01 -13.1 °C -15 °C 33751.6 hPa West 26.7 km/h 57.9 km/h 78 % 0 mm
22:04 -13.1 °C -14.4 °C 33751.6 hPa WSW 27.7 km/h 57.9 km/h 79 % 0 mm
22:08 -13.1 °C -14.4 °C 33751.6 hPa WSW 35.2 km/h 57.9 km/h 79 % 0 mm
22:09 -13.1 °C -14.4 °C 33751.6 hPa West 40.7 km/h 57.9 km/h 79 % 0 mm
22:15 -13.1 °C -14.4 °C 33751.6 hPa West 43.5 km/h 52 km/h 79 % 0 mm
22:18 -13.1 °C -14.4 °C 33751.6 hPa West 32.3 km/h 52 km/h 79 % 0 mm
22:19 -13.1 °C -14.4 °C 33751.6 hPa WSW 31.9 km/h 51.5 km/h 79 % 0 mm
22:28 -13.1 °C -14.4 °C 33751.6 hPa West 28.5 km/h 50.5 km/h 79 % 0 mm
22:32 -13.1 °C -14.4 °C 33751.6 hPa West 43 km/h 50.5 km/h 79 % 0 mm
22:34 -13.1 °C -15 °C 33751.6 hPa WSW 27.7 km/h 50.5 km/h 78 % 0 mm
22:35 -13.1 °C -15 °C 33751.6 hPa West 27.7 km/h 50.5 km/h 78 % 0 mm
22:41 -13 °C -15 °C 33751.6 hPa West 37 km/h 46.3 km/h 78 % 0 mm
22:42 -13 °C -15 °C 33751.6 hPa WSW 33.6 km/h 46.3 km/h 78 % 0 mm
22:44 -13 °C -15 °C 33751.6 hPa WSW 33.6 km/h 44.1 km/h 78 % 0 mm
22:46 -13 °C -15 °C 33751.6 hPa WSW 26.7 km/h 44.1 km/h 78 % 0 mm
22:50 -13 °C -15 °C 33751.6 hPa WSW 34.1 km/h 44.1 km/h 78 % 0 mm
22:52 -13 °C -15 °C 33751.6 hPa WSW 29.5 km/h 42.2 km/h 78 % 0 mm
22:54 -13 °C -15 °C 33751.6 hPa West 14.5 km/h 42.2 km/h 78 % 0 mm
22:55 -13 °C -15 °C 33751.6 hPa WSW 20.3 km/h 42.2 km/h 78 % 0 mm
23:00 -13.1 °C -14.4 °C 33731.3 hPa WSW 20.3 km/h 36.5 km/h 79 % 0 mm
23:05 -13.1 °C -15 °C 33731.3 hPa WSW 22.5 km/h 34.1 km/h 79 % 0 mm
23:10 -13.2 °C -14.4 °C 33731.3 hPa WSW 25.4 km/h 33.6 km/h 80 % 0 mm
23:14 -13.2 °C -15 °C 33751.6 hPa West 15.6 km/h 33.6 km/h 81 % 0 mm
23:19 -13.3 °C -15 °C 33751.6 hPa WSW 19.2 km/h 31.9 km/h 81 % 0 mm
23:24 -13.3 °C -14.4 °C 33751.6 hPa WSW 19.6 km/h 28.5 km/h 82 % 0 mm
23:29 -13.2 °C -14.4 °C 33751.6 hPa WSW 22.5 km/h 29.5 km/h 83 % 0 mm
23:34 -13.2 °C -14.4 °C 33751.6 hPa WSW 20.9 km/h 34.1 km/h 83 % 0 mm
23:35 -13.2 °C -14.4 °C 33751.6 hPa SW 22.5 km/h 34.1 km/h 83 % 0 mm
23:40 -13.2 °C -14.4 °C 33751.6 hPa SSW 22 km/h 33.6 km/h 83 % 0 mm
23:45 -13.1 °C -14.4 °C 33751.6 hPa SSW 19.2 km/h 33.6 km/h 82 % 0 mm
23:50 -13.1 °C -14.4 °C 33751.6 hPa SW 22.5 km/h 31.4 km/h 82 % 0 mm
23:53 -13.1 °C -14.4 °C 33751.6 hPa SW 20.9 km/h 31.4 km/h 83 % 0 mm
23:58 -13.1 °C -14.4 °C 33751.6 hPa WSW 22.5 km/h 28.5 km/h 83 % 0 mm
Le Gheer Warneton
Courtoisie de Weather Underground - 3 mb

Mise a jour : 25/02/2018 14:47:12
Généré par Cumulus 1.9.4 (1099)